CAPE
976 806 625 614 505 440 412 385 170 0 0 0 0 0 0 0 0 0 0 0 0 0 0 0 0 0 0 0 0 0 0 0 0 0 0 0 0 0 0 0 0 0
996 829 743 616 573 531 550 484 338 275 264 0 0 0 0 0 0 0 0 0 0 0 0 0 0 0 0 0 0 0 0 0 0 0 0 0 0 0 0 0 0 0
1005 841 764 678 640 632 592 464 366 332 270 55 0 5 0 0 0 0 0 0 0 0 0 0 0 0 0 0 0 0 0 0 0 0 0 0 0 0 0 0 0 0
1086 920 824 740 677 632 542 441 429 398 281 0 0 0 0 0 0 0 0 0 0 0 0 0 0 0 0 0 0 0 0 0 0 0 0 0 0 0 0 0 0 0
1131 1014 899 826 764 661 520 480 498 445 301 0 0 0 0 0 0 0 0 0 0 0 0 0 0 0 0 0 0 0 0 0 0 0 0 0 0 0 0 0 0 0
1142 1036 965 920 800 623 538 537 507 444 323 0 0 0 0 0 0 0 0 0 0 0 0 0 0 0 0 0 0 0 0 0 0 0 0 0 0 0 0 0 0 0
1128 1055 988 906 728 604 595 552 473 418 323 261 222 0 0 0 0 0 0 0 0 0 0 0 0 0 0 0 0 0 0 0 0 0 0 0 0 0 0 0 0 0
1169 1037 964 867 685 644 631 577 443 408 367 328 239 0 0 0 0 0 0 0 0 0 0 0 0 0 0 0 0 0 0 0 0 0 0 0 0 0 0 0 0 0
1129 1040 965 820 697 647 562 543 454 470 423 355 224 0 0 0 0 0 0 0 0 0 0 0 0 0 0 0 0 0 0 0 0 0 0 0 0 0 0 0 0 0
1100 1037 928 814 724 602 470 471 490 529 457 396 255 0 0 0 0 0 0 0 0 0 0 0 0 0 0 0 0 0 0 0 0 0 0 0 0 0 0 0 0 0
1120 1029 894 805 670 557 487 490 571 550 548 503 298 0 0 0 0 0 0 190 0 0 0 0 0 0 0 0 0 0 0 0 97 86 0 0 0 0 0 0 0 0
1118 983 862 752 714 668 616 637 645 652 660 588 377 0 0 0 0 0 185 227 0 0 0 0 0 0 0 0 37 125 227 233 174 0 9 50 61 35 9 0 0 0
1150 1042 911 852 820 774 730 741 740 713 694 627 371 0 0 0 0 205 263 244 47 0 0 0 0 0 0 210 62 190 55 0 0 4 50 69 16 4 0 0 0 0
1234 1097 989 942 908 843 790 812 743 709 670 526 318 152 0 0 0 240 296 283 243 0 0 0 0 0 0 0 0 0 0 0 6 4 14 0 0 0 0 0 0 0
1292 1198 1051 961 963 894 858 782 734 675 646 555 327 92 0 0 0 230 304 308 297 89 0 0 0 0 0 0 0 0 0 0 0 0 0 0 0 0 0 0 0 0
1270 1220 1103 988 945 912 942 850 826 780 710 609 364 221 186 88 0 270 317 339 340 290 257 0 0 0 0 0 0 0 0 0 0 0 0 0 0 0 0 0 0 0
1340 1175 1028 981 898 922 905 917 922 865 747 627 416 258 173 202 0 204 304 353 362 287 218 201 223 246 213 0 0 0 0 0 0 0 0 0 0 0 0 0 0 0
1290 1144 1142 1039 977 954 1007 1032 984 892 798 707 524 324 250 237 202 254 330 355 321 302 307 278 234 182 0 0 0 0 0 0 0 0 0 0 0 0 0 0 0 0
1290 1156 1205 1132 1032 1043 1106 1109 1028 947 833 714 556 408 318 277 234 351 423 412 322 299 265 236 211 163 16 0 0 0 2 6 0 0 0 0 0 0 0 0 0 0
1373 1143 1224 1172 1110 1132 1143 1118 1028 958 856 753 622 455 350 285 307 392 451 398 294 234 257 231 192 174 157 75 46 23 19 0 0 0 0 0 0 0 0 0 0 0
1407 1217 1212 1127 1080 1100 1116 1143 1023 911 848 821 782 619 401 327 295 388 357 291 273 284 230 160 205 192 56 69 4 0 0 0 0 0 0 0 0 0 0 0 0 0
1435 1206 1193 1161 1153 1080 1068 1016 928 812 768 810 844 698 456 331 280 276 287 308 321 323 168 174 190 146 48 0 0 0 0 0 0 0 0 0 0 0 0 0 0 0
1454 1242 1151 1167 1132 1065 1075 981 890 811 790 819 809 672 459 344 313 288 319 358 359 343 108 145 132 116 72 6 0 0 0 0 0 0 0 0 0 0 0 0 0 0
1446 1258 1110 1132 1093 1069 1099 1017 952 851 769 680 554 435 337 316 367 355 395 382 330 163 162 125 134 112 73 10 0 7 8 2 0 0 0 0 0 0 0 0 0 0
1416 1212 1130 1032 803 1013 1062 1010 901 823 625 382 262 259 299 376 416 408 385 363 271 180 265 121 92 70 74 37 17 10 6 5 1 0 0 0 0 0 0 0 0 0
1384 1228 1159 1009 919 979 968 987 891 685 579 389 366 433 421 380 447 369 268 174 197 134 92 18 7 14 14 100 14 3 18 28 16 1 0 0 0 0 0 0 0 0
Wind_Speed
22 22 22 20 20 20 20 22 22 nan nan nan nan nan nan nan nan nan nan nan nan nan nan nan nan nan nan nan nan nan nan nan nan nan nan nan nan nan nan nan nan nan
22 21 20 19 19 18 19 21 22 23 24 nan nan nan nan nan nan nan nan nan nan nan nan nan nan nan nan nan nan nan nan nan nan nan nan nan nan nan nan nan nan nan
21 20 20 21 20 20 21 22 22 22 23 nan nan nan nan nan nan nan nan nan nan nan nan nan nan nan nan nan nan nan nan nan nan nan nan nan nan nan nan nan nan nan
20 20 20 21 21 21 21 23 22 22 22 nan nan nan nan nan nan nan nan nan nan nan nan nan nan nan nan nan nan nan nan nan nan nan nan nan nan nan nan nan nan nan
21 20 20 21 21 21 21 22 22 21 22 nan nan nan nan nan nan nan nan nan nan nan nan nan nan nan nan nan nan nan nan nan nan nan nan nan nan nan nan nan nan nan
20 20 20 22 22 22 21 21 21 22 23 nan nan nan nan nan nan nan nan nan nan nan nan nan nan nan nan nan nan nan nan nan nan nan nan nan nan nan nan nan nan nan
20 20 21 22 23 22 22 21 21 23 24 23 23 nan nan nan nan nan nan nan nan nan nan nan nan nan nan nan nan nan nan nan nan nan nan nan nan nan nan nan nan nan
21 20 22 23 24 23 22 22 23 24 24 23 23 nan nan nan nan nan nan nan nan nan nan nan nan nan nan nan nan nan nan nan nan nan nan nan nan nan nan nan nan nan
20 20 22 25 25 23 24 24 24 24 24 24 24 nan nan nan nan nan nan nan nan nan nan nan nan nan nan nan nan nan nan nan nan nan nan nan nan nan nan nan nan nan
21 21 23 25 25 24 25 26 26 25 24 25 24 nan nan nan nan nan nan nan nan nan nan nan nan nan nan nan nan nan nan nan nan nan nan nan nan nan nan nan nan nan
21 21 24 26 25 24 27 27 27 26 24 24 25 nan nan nan nan nan nan 25 nan nan nan nan nan nan nan nan nan nan nan nan nan nan nan nan nan nan nan nan nan nan
22 22 24 26 26 26 28 28 27 26 25 23 25 nan nan nan nan nan 25 25 nan nan nan nan nan nan nan nan nan 34 36 37 35 nan nan nan nan nan nan nan nan nan
22 23 25 26 26 26 27 28 27 26 25 25 24 nan nan nan nan 26 25 26 nan nan nan nan nan nan nan 34 nan 36 nan nan nan nan nan nan nan nan nan nan nan nan
24 25 26 27 26 26 28 28 27 26 25 24 25 26 nan nan nan 27 26 26 26 nan nan nan nan nan nan nan nan nan nan nan nan nan nan nan nan nan nan nan nan nan
26 26 27 28 27 27 28 28 28 27 25 25 26 nan nan nan nan 27 27 26 26 nan nan nan nan nan nan nan nan nan nan nan nan nan nan nan nan nan nan nan nan nan
29 28 29 29 27 27 28 28 27 27 26 26 27 28 27 nan nan 26 27 27 28 28 29 nan nan nan nan nan nan nan nan nan nan nan nan nan nan nan nan nan nan nan
30 30 30 29 28 28 28 28 28 27 26 27 29 28 27 26 nan 28 27 28 30 31 32 32 33 34 39 nan nan nan nan nan nan nan nan nan nan nan nan nan nan nan
30 30 30 29 28 29 29 28 28 27 27 28 29 29 27 26 27 28 30 31 32 33 33 33 33 35 nan nan nan nan nan nan nan nan nan nan nan nan nan nan nan nan
30 30 29 29 28 29 28 27 27 27 28 28 29 29 29 28 29 31 32 32 34 34 34 33 32 35 nan nan nan nan nan nan nan nan nan nan nan nan nan nan nan nan
29 29 29 28 27 27 27 27 26 26 28 29 31 31 31 30 31 33 33 33 34 34 33 32 33 34 38 nan nan nan nan nan nan nan nan nan nan nan nan nan nan nan
27 28 28 27 27 26 26 26 27 28 30 31 33 33 33 32 32 33 33 33 33 33 33 32 33 37 nan nan nan nan nan nan nan nan nan nan nan nan nan nan nan nan
27 27 27 27 27 26 27 27 28 30 32 33 35 34 32 33 32 33 33 32 32 33 34 33 34 40 nan nan nan nan nan nan nan nan nan nan nan nan nan nan nan nan
27 28 28 28 28 28 28 29 31 32 33 34 35 34 34 34 33 32 32 31 30 31 33 33 34 38 nan nan nan nan nan nan nan nan nan nan nan nan nan nan nan nan
27 28 30 30 29 29 29 30 32 32 33 33 35 34 34 33 33 32 30 30 31 33 33 34 35 38 nan nan nan nan nan nan nan nan nan nan nan nan nan nan nan nan
28 29 30 32 31 29 30 32 32 32 32 33 33 32 32 31 31 31 29 29 31 34 37 39 nan nan nan nan nan nan nan nan nan nan nan nan nan nan nan nan nan nan
29 31 33 34 33 31 29 30 31 32 33 33 32 31 30 30 30 31 32 32 34 37 nan nan nan nan nan nan nan nan nan nan nan nan nan nan nan nan nan nan nan nan
Wind_Direction
276 281 289 294 297 302 305 304 304 nan nan nan nan nan nan nan nan nan nan nan nan nan nan nan nan nan nan nan nan nan nan nan nan nan nan nan nan nan nan nan nan nan
282 286 289 292 295 300 302 303 304 302 301 nan nan nan nan nan nan nan nan nan nan nan nan nan nan nan nan nan nan nan nan nan nan nan nan nan nan nan nan nan nan nan
286 290 294 297 300 304 303 301 300 299 299 nan nan nan nan nan nan nan nan nan nan nan nan nan nan nan nan nan nan nan nan nan nan nan nan nan nan nan nan nan nan nan
290 292 294 295 297 302 300 300 299 297 295 nan nan nan nan nan nan nan nan nan nan nan nan nan nan nan nan nan nan nan nan nan nan nan nan nan nan nan nan nan nan nan
289 289 291 292 293 298 299 301 302 299 298 nan nan nan nan nan nan nan nan nan nan nan nan nan nan nan nan nan nan nan nan nan nan nan nan nan nan nan nan nan nan nan
284 286 289 292 295 299 300 303 302 297 298 nan nan nan nan nan nan nan nan nan nan nan nan nan nan nan nan nan nan nan nan nan nan nan nan nan nan nan nan nan nan nan
286 287 291 292 295 299 300 303 298 297 300 300 298 nan nan nan nan nan nan nan nan nan nan nan nan nan nan nan nan nan nan nan nan nan nan nan nan nan nan nan nan nan
287 285 290 292 296 299 301 301 299 300 302 298 297 nan nan nan nan nan nan nan nan nan nan nan nan nan nan nan nan nan nan nan nan nan nan nan nan nan nan nan nan nan
287 287 291 295 298 300 301 299 300 300 302 299 296 nan nan nan nan nan nan nan nan nan nan nan nan nan nan nan nan nan nan nan nan nan nan nan nan nan nan nan nan nan
290 288 292 296 300 300 301 300 301 300 300 298 296 nan nan nan nan nan nan nan nan nan nan nan nan nan nan nan nan nan nan nan nan nan nan nan nan nan nan nan nan nan
294 292 293 296 298 298 300 300 300 300 298 296 294 nan nan nan nan nan nan 281 nan nan nan nan nan nan nan nan nan nan nan nan nan nan nan nan nan nan nan nan nan nan
298 295 294 296 296 298 300 299 299 299 297 294 295 nan nan nan nan nan 285 285 nan nan nan nan nan nan nan nan nan 300 301 300 302 nan nan nan nan nan nan nan nan nan
298 295 292 291 293 296 295 296 297 298 298 297 294 nan nan nan nan 285 285 288 nan nan nan nan nan nan nan 300 nan 302 nan nan nan nan nan nan nan nan nan nan nan nan
295 291 288 287 288 292 293 295 297 297 296 294 292 291 nan nan nan 290 288 289 291 nan nan nan nan nan nan nan nan nan nan nan nan nan nan nan nan nan nan nan nan nan
289 285 283 284 287 290 292 294 296 295 294 292 287 nan nan nan nan 291 292 292 293 nan nan nan nan nan nan nan nan nan nan nan nan nan nan nan nan nan nan nan nan nan
286 282 282 284 288 292 291 292 293 292 292 288 285 285 287 nan nan 291 293 295 296 295 295 nan nan nan nan nan nan nan nan nan nan nan nan nan nan nan nan nan nan nan
286 283 282 286 289 289 289 291 291 289 289 285 284 285 287 287 nan 293 292 293 294 293 293 294 295 297 301 nan nan nan nan nan nan nan nan nan nan nan nan nan nan nan
286 284 283 286 288 289 290 291 289 289 287 283 283 284 283 281 288 289 286 289 291 293 295 294 294 298 nan nan nan nan nan nan nan nan nan nan nan nan nan nan nan nan
287 286 285 287 289 289 289 290 290 288 285 282 283 281 279 283 285 286 289 292 294 295 294 292 292 299 nan nan nan nan nan nan nan nan nan nan nan nan nan nan nan nan
285 285 286 287 287 287 289 291 289 287 283 279 278 279 282 283 285 289 291 294 295 294 293 292 293 298 299 nan nan nan nan nan nan nan nan nan nan nan nan nan nan nan
284 284 285 285 286 287 289 290 289 282 279 278 281 285 288 290 291 291 291 291 292 293 295 295 297 302 nan nan nan nan nan nan nan nan nan nan nan nan nan nan nan nan
284 284 284 285 285 286 287 286 284 282 280 278 279 279 280 281 282 286 290 291 292 296 296 298 300 305 nan nan nan nan nan nan nan nan nan nan nan nan nan nan nan nan
284 287 287 288 289 289 287 284 281 279 276 278 282 283 284 286 287 288 289 291 292 294 297 299 300 307 nan nan nan nan nan nan nan nan nan nan nan nan nan nan nan nan
290 294 294 293 290 290 290 285 281 280 282 283 287 288 288 290 290 291 293 295 297 299 301 300 302 307 nan nan nan nan nan nan nan nan nan nan nan nan nan nan nan nan
292 296 298 295 290 289 289 289 286 286 284 282 283 285 287 288 290 292 293 294 297 298 299 303 nan nan nan nan nan nan nan nan nan nan nan nan nan nan nan nan nan nan
291 296 297 297 292 287 285 283 279 279 282 283 283 285 286 287 287 291 295 296 297 297 nan nan nan nan nan nan nan nan nan nan nan nan nan nan nan nan nan nan nan nan